カタログに戻る

BLOCK DM-SL R/B

運用中HEO
NORAD 29237·ROCKET BODY· XX

打ち上げ Jun 18, 2006 から Sea Launch Platform

Loading…

次のパス (今後24時間)

TLE

最新Source: Space-Track

元期: Sep 14, 2026, 13:39 UTC

1 29237U 06023B   26257.56929318 -.00000074  00000-0  00000-0 0  9991
2 29237   1.0078  23.5994 6626707  65.9191 347.9715  2.15891221159606

AllMySatでBLOCK DM-SL R/Bをリアルタイム追跡

Download on the App Store